[[{"header":{"parameterUnit":"m.s-1","parameterCategory":1,"la1":30.2991,"la2":30.254,"lo1":-89.0895,"lo2":-89.0444,"dy":0.0017,"dx":0.0017,"nx":28,"ny":28,"refTime":"2025-09-07T21:00:00:Z","depth":0,"parameterNumber":2,"parameterNumberName":"U-component_of_WINDS"},"data":[0,0,0,0,0,0,0,0,0,0,0,0,0,0,0,0,0,0,0,0,0,0,0,0,0,0,0,0,0,0,0,0,0,0,0,0,0,0,0,0,0,0,0,0,0,0,0,0,0,0,0,0,0,0,0,0,0,0,-2.9232,-2.9232,0,-2.9259,-2.9259,-2.9259,-2.914,-2.9137,-2.9133,-2.913,-2.916,-2.9163,-2.9167,0,0,0,0,0,0,0,0,0,0,0,0,0,-2.9077,-2.9081,-2.9232,-2.9232,-2.9232,-2.9259,-2.9259,-2.9259,-2.9141,-2.9137,-2.9132,-2.9128,-2.9158,-2.9163,-2.9168,0,0,0,0,0,0,0,0,0,0,0,0,0,-2.9129,-2.9082,-2.9231,-2.9176,-2.9172,-2.9258,-2.9259,-2.9259,-2.9142,-2.9137,-2.9131,-2.9126,-2.9157,-2.9163,-2.9168,-2.931,0,0,-2.9187,-2.919,0,0,0,0,0,0,0,0,-2.9126,-2.9134,-2.9184,-2.918,-2.9175,-2.9191,-2.9215,-2.9277,-2.9143,-2.9153,-2.913,-2.9124,-2.9174,-2.9179,-2.9195,-2.9312,-2.9313,-2.9187,-2.9191,-2.9194,-2.9195,0,0,0,0,0,0,0,-2.9123,-2.9133,-2.9242,-2.9185,-2.918,-2.915,-2.9152,-2.9226,-2.9193,-2.9152,-2.9143,-2.9148,-2.9171,-2.919,-2.9195,-2.9313,-2.9187,-2.9193,-2.9196,-2.9199,-2.9547,-2.9552,0,0,0,0,0,0,-2.9126,-2.913,-2.9241,-2.9243,-2.9137,-2.9157,-2.9159,-2.9191,-2.9192,-2.9187,-2.9153,-2.9142,-2.9182,-2.9188,-2.9196,-2.9362,-2.9194,-2.9199,-2.9203,-2.9541,-2.9548,-2.9554,0,0,0,0,0,0,-2.9123,-2.9137,-2.924,-2.9184,-2.9195,-2.9165,-2.9203,-2.9194,-2.9213,-2.9192,-2.9185,-2.9178,-2.9178,-2.9187,-2.9282,-2.9361,-2.9202,-2.9208,-2.9535,-2.9544,-2.9551,-2.9696,0,0,0,0,0,0,-2.9119,-2.9137,-2.9191,-2.9186,-2.9199,-2.9327,-2.9207,-2.9199,-2.9224,-2.9211,-2.9214,-2.921,-2.9175,-2.9274,-2.9289,-2.9367,-2.9212,-2.9528,-2.9539,-2.9549,-2.9685,-2.9709,-2.973,0,0,0,0,0,-2.9114,-2.9231,-2.9194,-2.9208,-2.9265,-2.9332,-2.9339,-2.9296,-2.923,-2.9284,-2.927,-2.921,-2.935,-2.9285,-2.93,-2.9382,-2.9523,-2.9536,-2.9548,-2.9674,-2.9704,-2.9729,0,0,0,0,0,0,-2.9246,-2.9229,-2.9188,-2.9307,-2.9322,-2.9312,-2.9379,-2.9329,-2.9363,-2.9349,-2.9294,-2.9296,-2.9401,-2.94,-2.9328,-2.9518,-2.9425,-2.9441,-2.9516,-2.9544,-2.9566,-2.9565,-2.9217,0,0,0,0,0,-2.9289,-2.9344,-2.9326,-2.9433,-2.9442,-2.941,-2.9437,-2.9402,-2.9415,-2.9421,-2.9414,-2.943,-2.9477,-2.951,-2.9552,-2.9682,-2.9682,-2.9746,-2.9768,-2.9787,-2.9803,-2.9872,-2.99,-2.9596,-2.9596,-2.9596,0,0,-2.9378,-2.9376,-2.9414,-2.9459,-2.9467,-2.9526,-2.9416,-2.9483,-2.9526,-2.9431,-2.9522,-2.9517,-2.953,-2.9644,-2.9694,-2.9647,-2.9886,-2.9803,-2.9818,-2.9824,-2.9888,-2.9916,-2.9942,-2.9605,-2.9603,-2.9602,0,0,-2.9571,-2.9575,-2.9664,-2.9673,-2.9685,-2.9662,-2.9683,-2.9681,-2.9674,-2.9763,-2.9693,-2.9743,-2.9826,-2.9839,-2.9856,-3.0052,-2.9998,-3.0067,-3.0186,-3.0254,-3.0278,-3.0299,-3.037,-3.0396,-3.0082,-3.0082,-3.0083,0,-2.9681,-2.9767,-2.9716,-2.9788,-2.981,-2.9725,-2.9815,-2.9827,-2.9853,-2.987,-2.9816,-2.9917,-2.992,-3.0036,-3.0084,-3.01,-3.0123,-3.0068,-3.0278,-3.0299,-3.0318,-3.0385,-3.0412,-3.0091,-3.009,-3.0089,-3.0088,0,-2.9902,-2.9962,-3.0033,-3.0059,-3.0088,-3.0169,-3.0131,-3.0166,-3.0128,-3.0111,-3.0202,-3.0203,-3.0244,-3.0268,-3.0232,-3.0378,-3.0349,-3.0288,-3.0193,-3.0356,-3.0418,-3.0444,-3.0103,-3.01,-3.0097,-3.0095,0,0,-3.0182,-3.0177,-3.0204,-3.0215,-3.0221,-3.0267,-3.0343,-3.0382,-3.0415,-3.0434,-3.0498,-3.0569,-3.0512,-3.0531,-3.0495,-3.0555,-3.0711,-3.0486,-3.0485,-3.0529,-3.0873,-3.0921,-3.0952,-3.0673,-3.0678,-3.0682,-3.0873,0,-3.0372,-3.0503,-3.0458,-3.0591,-3.0647,-3.0566,-3.0632,-3.0643,-3.0629,-3.0673,-3.0656,-3.0708,-3.0628,-3.064,-3.0695,-3.068,-3.078,-3.0665,-3.0733,-3.0736,-3.0735,-3.0984,-3.1035,-3.1216,-3.0897,-3.0901,-3.0904,0,-3.0613,-3.0642,-3.0781,-3.0776,-3.0798,-3.0859,-3.0891,-3.0934,-3.0944,-3.0929,-3.0951,-3.0901,-3.0976,-3.0879,-3.0981,-3.0905,-3.0929,-3.0926,-3.0931,-3.0938,-3.0832,-3.1,-3.1272,-3.13,-3.0941,-3.0938,-3.0935,0,-3.0806,-3.0879,-3.0971,-3.0982,-3.098,-3.1024,-3.1025,-3.103,-3.1056,-3.1084,-3.11,-3.1136,-3.1157,-3.1186,-3.1148,-3.1081,-3.1256,-3.1156,-3.1247,-3.1248,-3.129,-3.1288,-3.1572,-3.1302,-3.1301,-3.1301,-3.13,0,-3.1025,-3.1113,-3.1057,-3.1115,-3.1211,-3.1158,-3.1255,-3.1246,-3.1251,-3.1305,-3.1237,-3.1289,-3.1234,-3.1281,-3.1251,-3.1341,-3.135,-3.1341,-3.1332,-3.1349,-3.135,-3.1366,-3.1353,-3.1308,-3.1306,-3.1305,-3.1304,0,-3.1258,-3.1224,-3.1319,-3.1308,-3.1307,-3.1379,-3.1369,-3.1421,-3.14,-3.1469,-3.1483,-3.1451,-3.1502,-3.1466,-3.1518,-3.1498,-3.1616,-3.1589,-3.1613,-3.1606,-3.17,-3.1692,-3.2006,-3.2045,-3.1748,-3.1751,-3.1753,0,-3.1401,-3.1467,-3.1462,-3.1493,-3.1498,-3.1549,-3.1575,-3.1525,-3.1555,-3.1571,-3.1621,-3.1667,-3.1701,-3.1787,-3.1769,-3.1808,-3.1782,-3.1889,-3.1788,-3.1802,-3.1786,-3.1784,-3.179,-3.1911,-3.1914,-3.1917,-3.1919,0,-3.166,-3.1639,-3.1679,-3.1713,-3.1746,-3.1771,-3.179,-3.1819,-3.1768,-3.1805,-3.1857,-3.1883,-3.1935,-3.1981,-3.2013,-3.2013,-3.1959,-3.1951,-3.1974,-3.1993,-3.2005,-3.2001,-3.1671,-3.1945,-3.1942,-3.194,-3.1939,-3.1938,-3.1853,-3.1908,-3.1913,-3.196,-3.1968,-3.1987,-3.2036,-3.2021,-3.2063,-3.2101,-3.2068,-3.213,-3.2137,-3.2174,-3.2182,-3.2229,-3.2186,-3.2219,-3.2228,-3.2238,-3.2252,-3.1995,-3.2235,-3.2234,-3.2233,-3.2232,-3.2232,0,-3.211,-3.2108,-3.2152,-3.218,-3.2217,-3.216,-3.2177,-3.2212,-3.2268,-3.2279,-3.2313,-3.2372,-3.2416,-3.24,-3.2439,-3.2481,-3.2457,-3.2493,-3.2491,-3.2492,-3.2288,-3.2265,-3.2512,-3.2512,-3.2512,-3.2512,-3.2512,-3.2512,-3.2248,-3.2338,-3.2318,-3.2411,-3.2408,-3.2469,-3.2484,-3.2501,-3.2509,-3.2578,-3.2614,-3.2603,-3.2603,-3.2641,-3.2679,-3.2673,-3.2692,-3.2738,-3.2724,-3.2534,-3.2506,-3.248,-3.2458,-3.2742,-3.2742,-3.2923,-3.2925,-3.2927]},{"header":{"parameterUnit":"m.s-1","parameterCategory":1,"la1":30.2991,"la2":30.254,"lo1":-89.0895,"lo2":-89.0444,"dy":0.0017,"dx":0.0017,"nx":28,"ny":28,"refTime":"2025-09-07T21:00:00:Z","depth":0,"parameterNumber":3,"parameterNumberName":"V-component_of_WINDS"},"data":[0,0,0,0,0,0,0,0,0,0,0,0,0,0,0,0,0,0,0,0,0,0,0,0,0,0,0,0,0,0,0,0,0,0,0,0,0,0,0,0,0,0,0,0,0,0,0,0,0,0,0,0,0,0,0,0,0,0,-5.9942,-5.9943,0,-6.0009,-6.0009,-6.001,-5.9919,-5.9915,-5.9912,-5.9909,-5.9973,-5.9977,-5.9982,0,0,0,0,0,0,0,0,0,0,0,0,0,-5.9729,-5.9734,-5.9942,-5.9943,-5.9944,-6.0009,-6.001,-6.001,-5.9919,-5.9915,-5.9911,-5.9907,-5.9971,-5.9977,-5.9982,0,0,0,0,0,0,0,0,0,0,0,0,0,-5.9811,-5.9735,-5.9942,-5.9906,-5.9903,-6.0008,-6.001,-6.0011,-5.992,-5.9915,-5.991,-5.9906,-5.9969,-5.9976,-5.9983,-6.0125,0,0,-6.0005,-6.0008,0,0,0,0,0,0,0,0,-5.9807,-5.9819,-5.991,-5.9909,-5.9906,-5.995,-5.9958,-6.0049,-5.9921,-5.9914,-5.9909,-5.9903,-5.9969,-5.9976,-5.9999,-6.0128,-6.0131,-6.0006,-6.001,-6.0013,-6.0015,0,0,0,0,0,0,0,-5.9801,-5.9816,-5.9968,-5.9912,-5.9909,-5.9885,-5.9891,-5.9975,-5.9968,-5.9914,-5.9907,-5.9917,-5.9967,-5.9992,-6.0,-6.0132,-6.0005,-6.0012,-6.0016,-6.0019,-6.0378,-6.0383,0,0,0,0,0,0,-5.98,-5.9812,-5.9966,-5.997,-5.9843,-5.9892,-5.9899,-5.9941,-5.9967,-5.9966,-5.9921,-5.9912,-5.9983,-5.9992,-6.0002,-6.0168,-6.0013,-6.002,-6.0024,-6.0373,-6.0379,-6.0385,0,0,0,0,0,0,-5.9796,-5.9815,-5.9963,-5.9889,-5.9906,-5.9901,-5.9949,-5.9945,-5.997,-5.9972,-5.997,-5.9949,-5.9979,-5.9992,-6.0095,-6.0169,-6.0023,-6.0029,-6.0366,-6.0375,-6.0382,-6.0503,0,0,0,0,0,0,-5.9791,-5.9814,-5.987,-5.9891,-5.9911,-6.0058,-5.9953,-5.995,-5.9983,-5.9973,-5.9997,-5.9997,-5.9976,-6.0085,-6.0102,-6.0176,-6.0035,-6.036,-6.037,-6.0379,-6.0492,-6.0514,-6.0533,0,0,0,0,0,-5.9783,-5.99,-5.9873,-5.9892,-5.998,-6.0062,-6.0073,-6.0048,-5.999,-6.0044,-6.0045,-5.9996,-6.0158,-6.0096,-6.0115,-6.0192,-6.0355,-6.0367,-6.0379,-6.0483,-6.051,-6.0532,0,0,0,0,0,0,-5.9886,-5.9903,-5.9872,-6.0,-6.0031,-6.0047,-6.0115,-6.0077,-6.0124,-6.0112,-6.0077,-6.0084,-6.0194,-6.0203,-6.0134,-6.0329,-6.0247,-6.0263,-6.032,-6.0345,-6.0365,-6.036,-6.0041,0,0,0,0,0,-5.9924,-5.9992,-6.0001,-6.0113,-6.013,-6.012,-6.0155,-6.0133,-6.0163,-6.0175,-6.0183,-6.0212,-6.0269,-6.0307,-6.036,-6.0493,-6.0496,-6.0555,-6.0575,-6.0592,-6.0606,-6.0675,-6.0701,-6.0424,-6.0424,-6.0423,0,0,-6.0003,-6.002,-6.0064,-6.0134,-6.0155,-6.0223,-6.0131,-6.0208,-6.0258,-6.0185,-6.0284,-6.0291,-6.0321,-6.0439,-6.0491,-6.045,-6.0683,-6.0607,-6.062,-6.0625,-6.069,-6.0716,-6.0739,-6.0432,-6.043,-6.0429,0,0,-6.018,-6.0201,-6.0296,-6.0319,-6.0352,-6.0344,-6.0367,-6.0389,-6.0391,-6.0489,-6.0436,-6.0494,-6.0594,-6.0617,-6.0641,-6.0827,-6.0782,-6.0844,-6.095,-6.1017,-6.1039,-6.1058,-6.1123,-6.1147,-6.0859,-6.0859,-6.0859,0,-6.0273,-6.0376,-6.0349,-6.0429,-6.046,-6.04,-6.0494,-6.0517,-6.0565,-6.0587,-6.054,-6.0664,-6.0679,-6.0802,-6.0847,-6.0869,-6.0892,-6.0841,-6.1039,-6.1057,-6.1075,-6.1136,-6.1161,-6.0866,-6.0865,-6.0865,-6.0864,0,-6.0487,-6.0559,-6.0631,-6.0681,-6.0721,-6.0808,-6.0791,-6.0834,-6.0809,-6.0806,-6.0905,-6.0922,-6.0976,-6.1004,-6.0979,-6.1122,-6.1095,-6.1044,-6.096,-6.1109,-6.1166,-6.1189,-6.0877,-6.0874,-6.0872,-6.087,0,0,-6.0732,-6.0766,-6.0792,-6.0813,-6.0845,-6.0899,-6.0982,-6.1037,-6.1073,-6.1108,-6.1176,-6.1261,-6.1214,-6.1242,-6.1219,-6.1279,-6.1423,-6.122,-6.122,-6.1256,-6.1579,-6.1617,-6.1645,-6.1394,-6.1398,-6.1402,-6.1576,0,-6.0909,-6.1055,-6.1032,-6.1172,-6.1237,-6.1179,-6.1251,-6.1277,-6.1276,-6.1329,-6.1327,-6.1387,-6.1321,-6.1337,-6.1394,-6.1394,-6.1487,-6.1381,-6.1454,-6.1457,-6.1448,-6.1674,-6.1715,-6.1879,-6.1598,-6.1602,-6.1605,0,-6.1135,-6.1179,-6.1327,-6.1347,-6.1373,-6.1439,-6.1486,-6.1538,-6.1565,-6.156,-6.1592,-6.1557,-6.1638,-6.1553,-6.1662,-6.1591,-6.1619,-6.1623,-6.1629,-6.1634,-6.154,-6.1685,-6.1931,-6.1955,-6.164,-6.1637,-6.1634,0,-6.1298,-6.1394,-6.1494,-6.1514,-6.154,-6.1587,-6.16,-6.1623,-6.1657,-6.1697,-6.1718,-6.1768,-6.1794,-6.1832,-6.1811,-6.1752,-6.1924,-6.1838,-6.192,-6.1921,-6.1959,-6.1956,-6.2212,-6.1979,-6.1979,-6.1978,-6.1978,0,-6.1497,-6.1589,-6.1567,-6.1629,-6.1729,-6.1701,-6.18,-6.1805,-6.1826,-6.1886,-6.1838,-6.1895,-6.1865,-6.1919,-6.1903,-6.1995,-6.2007,-6.2004,-6.1998,-6.2008,-6.2008,-6.2026,-6.2013,-6.1985,-6.1983,-6.1982,-6.1981,0,-6.1695,-6.1685,-6.179,-6.1806,-6.1813,-6.1886,-6.1899,-6.1955,-6.195,-6.2026,-6.2042,-6.2034,-6.2094,-6.2078,-6.2143,-6.2132,-6.2248,-6.2229,-6.224,-6.2235,-6.2318,-6.231,-6.2592,-6.2627,-6.2373,-6.2375,-6.2377,0,-6.1823,-6.1892,-6.1917,-6.1954,-6.1971,-6.2032,-6.2066,-6.204,-6.2077,-6.2113,-6.2165,-6.2222,-6.2266,-6.2365,-6.2364,-6.2413,-6.2394,-6.2489,-6.2401,-6.2407,-6.2394,-6.2389,-6.2395,-6.2507,-6.251,-6.2512,-6.2514,0,-6.205,-6.2041,-6.2094,-6.2144,-6.2187,-6.2225,-6.2258,-6.2291,-6.2267,-6.2311,-6.2374,-6.2408,-6.2475,-6.2531,-6.2576,-6.2587,-6.2546,-6.2542,-6.2563,-6.2573,-6.2576,-6.2575,-6.2287,-6.2535,-6.2533,-6.2532,-6.253,-6.253,-6.2216,-6.2275,-6.2301,-6.236,-6.2383,-6.2415,-6.2468,-6.247,-6.2522,-6.2576,-6.2556,-6.2627,-6.2651,-6.2707,-6.2724,-6.2777,-6.2741,-6.2772,-6.278,-6.2788,-6.2798,-6.2569,-6.2785,-6.2785,-6.2784,-6.2784,-6.2783,0,-6.244,-6.2454,-6.2509,-6.2557,-6.2604,-6.2563,-6.2597,-6.2638,-6.2701,-6.2727,-6.2772,-6.2842,-6.2897,-6.2899,-6.2949,-6.2992,-6.2974,-6.3006,-6.3002,-6.3004,-6.2828,-6.2804,-6.3019,-6.3019,-6.3019,-6.3019,-6.3019,-6.3019,-6.2562,-6.2658,-6.2652,-6.2758,-6.277,-6.2841,-6.2864,-6.2892,-6.2913,-6.2994,-6.304,-6.3042,-6.3058,-6.3108,-6.3155,-6.3154,-6.3174,-6.3213,-6.3205,-6.304,-6.3017,-6.2995,-6.2972,-6.3218,-6.3218,-6.3376,-6.3378,-6.3379]}]]